• Em Portugal
  • Lista de países
  • Para 7 dias
  • Temperatura da água
  • Mapas de satélite
  • Mapa do tempo
  • Widgets de tempo
  • user-avatar
    Iniciar Sessão

    Previsão horária em Jazd

    Hoje, 22 Janeiro, Segunda-feira

    Tempo Temperatura Precipitação Vento Pressão Humidade
    00:00 -3°C° 0 mm 1 m/s 556 mmHg 40%
    01:00 -4°C° 0 mm 1 m/s 556 mmHg 39%
    02:00 -4°C° 0 mm 1 m/s 556 mmHg 39%
    03:00 -4°C° 0 mm 1 m/s 556 mmHg 38%
    04:00 -4°C° 0 mm 1 m/s 556 mmHg 38%
    05:00 -4°C° 0 mm 1 m/s 556 mmHg 37%
    06:00 -4°C° 0 mm 1 m/s 556 mmHg 37%
    07:00 -4°C° 0 mm 1 m/s 556 mmHg 36%
    08:00 -2°C° 0 mm 1 m/s 557 mmHg 33%
    09:00 0°C° 0 mm 1 m/s 559 mmHg 29%
    10:00 +2°C° 0 mm 1 m/s 560 mmHg 25%
    11:00 +3°C° 0 mm 1 m/s 560 mmHg 24%
    12:00 +4°C° 0 mm 1 m/s 560 mmHg 22%
    13:00 +6°C° 0 mm 1 m/s 560 mmHg 21%
    14:00 +6°C° 0 mm 1 m/s 560 mmHg 20%
    15:00 +6°C° 0 mm 1 m/s 560 mmHg 18%
    16:00 +7°C° 0 mm 1 m/s 560 mmHg 17%
    17:00 +6°C° 0 mm 1 m/s 559 mmHg 19%
    18:00 +4°C° 0 mm 1 m/s 559 mmHg 20%
    19:00 +2°C° 0 mm 2 m/s 558 mmHg 22%
    20:00 +2°C° 0 mm 2 m/s 558 mmHg 22%
    21:00 +2°C° 0 mm 2 m/s 558 mmHg 22%
    22:00 +2°C° 0 mm 2 m/s 557 mmHg 22%
    23:00 +1°C° 0 mm 2 m/s 557 mmHg 21%

    Amanhã, 23 Janeiro, Terça-feira

    Tempo Temperatura Precipitação Vento Pressão Humidade
    00:00 +1°C° 0 mm 2 m/s 557 mmHg 21%
    01:00 +1°C° 0 mm 2 m/s 556 mmHg 20%
    02:00 0°C° 0 mm 3 m/s 556 mmHg 20%
    03:00 0°C° 0 mm 3 m/s 556 mmHg 20%
    04:00 0°C° 0 mm 3 m/s 556 mmHg 20%
    05:00 0°C° 0 mm 3 m/s 556 mmHg 19%
    06:00 +1°C° 0 mm 2 m/s 555 mmHg 19%
    07:00 -1°C° 0 mm 2 m/s 555 mmHg 19%
    08:00 +2°C° 0 mm 2 m/s 557 mmHg 18%
    09:00 +4°C° 0 mm 2 m/s 558 mmHg 17%
    10:00 +5°C° 0 mm 3 m/s 559 mmHg 15%
    11:00 +7°C° 0 mm 3 m/s 559 mmHg 14%
    12:00 +8°C° 0 mm 3 m/s 559 mmHg 13%
    13:00 +9°C° 0 mm 3 m/s 559 mmHg 12%
    14:00 +9°C° 0 mm 3 m/s 559 mmHg 11%
    15:00 +10°C° 0 mm 3 m/s 558 mmHg 11%
    16:00 +10°C° 0 mm 3 m/s 558 mmHg 10%
    17:00 +8°C° 0 mm 2 m/s 558 mmHg 12%
    18:00 +7°C° 0 mm 2 m/s 557 mmHg 13%
    19:00 +6°C° 0 mm 1 m/s 557 mmHg 15%
    20:00 +5°C° 0 mm 1 m/s 556 mmHg 16%
    21:00 +4°C° 0 mm 2 m/s 556 mmHg 16%
    22:00 +3°C° 0 mm 2 m/s 556 mmHg 17%
    23:00 +3°C° 0 mm 2 m/s 556 mmHg 18%

    Depois de amanhã, 24 Janeiro, Quarta-feira

    Tempo Temperatura Precipitação Vento Pressão Humidade
    00:00 +2°C° 0 mm 2 m/s 555 mmHg 19%
    01:00 +2°C° 0 mm 2 m/s 555 mmHg 20%
    02:00 +1°C° 0 mm 2 m/s 555 mmHg 20%
    03:00 +1°C° 0 mm 2 m/s 555 mmHg 20%
    04:00 -1°C° 0 mm 2 m/s 554 mmHg 21%
    05:00 -1°C° 0 mm 2 m/s 554 mmHg 22%
    06:00 -1°C° 0 mm 2 m/s 555 mmHg 23%
    07:00 -1°C° 0 mm 2 m/s 555 mmHg 24%
    08:00 +2°C° 0 mm 2 m/s 556 mmHg 24%
    09:00 +4°C° 0 mm 2 m/s 558 mmHg 24%
    10:00 +6°C° 0 mm 2 m/s 559 mmHg 23%
    11:00 +6°C° 0 mm 2 m/s 559 mmHg 23%
    12:00 +7°C° 0 mm 2 m/s 559 mmHg 22%
    13:00 +9°C° 0 mm 1 m/s 559 mmHg 21%
    14:00 +9°C° 0 mm 1 m/s 559 mmHg 20%
    15:00 +9°C° 0 mm 1 m/s 559 mmHg 20%
    16:00 +9°C° 0 mm 1 m/s 559 mmHg 19%
    17:00 +8°C° 0 mm 1 m/s 559 mmHg 21%
    18:00 +7°C° 0 mm 1 m/s 558 mmHg 23%
    19:00 +5°C° 0 mm 1 m/s 558 mmHg 25%
    20:00 +5°C° 0 mm 1 m/s 558 mmHg 25%
    21:00 +4°C° 0 mm 1 m/s 558 mmHg 26%
    22:00 +4°C° 0 mm 1 m/s 558 mmHg 26%
    23:00 +3°C° 0 mm 1 m/s 557 mmHg 27%

    25 Janeiro, Quinta-feira

    Tempo Temperatura Precipitação Vento Pressão Humidade
    00:00 +3°C° 0 mm 1 m/s 557 mmHg 28%
    01:00 +2°C° 0 mm 1 m/s 557 mmHg 29%
    02:00 +2°C° 0 mm 1 m/s 556 mmHg 30%
    03:00 +1°C° 0 mm 1 m/s 556 mmHg 30%
    04:00 +1°C° 0 mm 1 m/s 556 mmHg 31%
    05:00 -1°C° 0 mm 0 m/s 556 mmHg 31%
    06:00 -1°C° 0 mm 0 m/s 556 mmHg 32%
    07:00 -2°C° 0 mm 0 m/s 556 mmHg 32%
    08:00 +2°C° 0 mm 1 m/s 557 mmHg 28%
    09:00 +4°C° 0 mm 1 m/s 559 mmHg 24%
    10:00 +6°C° 0 mm 1 m/s 561 mmHg 20%
    11:00 +7°C° 0 mm 1 m/s 561 mmHg 19%
    12:00 +8°C° 0 mm 1 m/s 561 mmHg 18%
    13:00 +9°C° 0 mm 1 m/s 561 mmHg 17%
    14:00 +9°C° 0 mm 1 m/s 560 mmHg 16%
    15:00 +8°C° 0 mm 2 m/s 560 mmHg 15%
    16:00 +8°C° 0 mm 2 m/s 560 mmHg 15%
    17:00 +8°C° 0 mm 1 m/s 560 mmHg 17%
    18:00 +7°C° 0 mm 1 m/s 559 mmHg 19%
    19:00 +5°C° 0 mm 1 m/s 559 mmHg 22%
    20:00 +5°C° 0 mm 1 m/s 559 mmHg 22%
    21:00 +4°C° 0 mm 1 m/s 558 mmHg 22%
    22:00 +3°C° 0 mm 1 m/s 558 mmHg 23%
    23:00 +3°C° 0 mm 1 m/s 558 mmHg 23%

    26 Janeiro, Sexta-feira

    Tempo Temperatura Precipitação Vento Pressão Humidade
    00:00 +2°C° 0 mm 1 m/s 558 mmHg 22%
    01:00 +2°C° 0 mm 1 m/s 557 mmHg 22%
    02:00 +2°C° 0 mm 1 m/s 557 mmHg 22%
    03:00 +1°C° 0 mm 1 m/s 557 mmHg 23%
    04:00 +1°C° 0 mm 1 m/s 557 mmHg 23%
    05:00 +1°C° 0 mm 1 m/s 557 mmHg 23%
    06:00 +1°C° 0 mm 1 m/s 557 mmHg 23%
    07:00 0°C° 0 mm 1 m/s 557 mmHg 22%
    08:00 +3°C° 0 mm 1 m/s 558 mmHg 20%
    09:00 +5°C° 0 mm 1 m/s 560 mmHg 17%
    10:00 +6°C° 0 mm 2 m/s 561 mmHg 15%
    11:00 +7°C° 0 mm 2 m/s 561 mmHg 15%
    12:00 +8°C° 0 mm 2 m/s 561 mmHg 15%
    13:00 +9°C° 0 mm 2 m/s 561 mmHg 15%
    14:00 +10°C° 0 mm 2 m/s 560 mmHg 16%
    15:00 +10°C° 0 mm 2 m/s 560 mmHg 17%
    16:00 +10°C° 0 mm 2 m/s 560 mmHg 18%
    17:00 +9°C° 0 mm 2 m/s 559 mmHg 20%
    18:00 +8°C° 0 mm 2 m/s 559 mmHg 23%
    19:00 +6°C° 0 mm 2 m/s 558 mmHg 25%
    20:00 +6°C° 0 mm 2 m/s 558 mmHg 27%
    21:00 +5°C° 0 mm 3 m/s 558 mmHg 28%
    22:00 +4°C° 0 mm 3 m/s 558 mmHg 30%
    23:00 +4°C° 0 mm 3 m/s 558 mmHg 32%

    27 Janeiro, Sábado

    Tempo Temperatura Precipitação Vento Pressão Humidade
    00:00 +4°C° 0 mm 3 m/s 557 mmHg 33%
    01:00 +3°C° 0 mm 3 m/s 557 mmHg 35%
    02:00 +3°C° 0 mm 3 m/s 556 mmHg 37%
    03:00 +3°C° 0 mm 3 m/s 556 mmHg 38%
    04:00 +2°C° 0 mm 3 m/s 556 mmHg 40%
    05:00 +2°C° 0 mm 3 m/s 556 mmHg 41%
    06:00 +1°C° 0 mm 3 m/s 555 mmHg 43%
    07:00 +1°C° 0 mm 3 m/s 555 mmHg 45%
    08:00 +3°C° 0 mm 4 m/s 556 mmHg 41%
    09:00 +4°C° 0 mm 4 m/s 557 mmHg 37%
    10:00 +6°C° 0 mm 5 m/s 558 mmHg 33%
    11:00 +5°C° 0 mm 6 m/s 558 mmHg 31%
    12:00 +6°C° 0 mm 7 m/s 558 mmHg 30%
    13:00 +7°C° 0 mm 8 m/s 558 mmHg 28%
    14:00 +7°C° 0 mm 8 m/s 557 mmHg 25%
    15:00 +7°C° 0 mm 8 m/s 557 mmHg 23%
    16:00 +7°C° 0 mm 8 m/s 557 mmHg 20%
    17:00 +6°C° 0 mm 7 m/s 557 mmHg 21%
    18:00 +5°C° 0 mm 5 m/s 556 mmHg 22%
    19:00 +4°C° 0 mm 3 m/s 556 mmHg 23%
    20:00 +3°C° 0 mm 3 m/s 555 mmHg 24%
    21:00 +3°C° 0 mm 2 m/s 555 mmHg 25%
    22:00 +2°C° 0 mm 2 m/s 555 mmHg 26%
    23:00 +2°C° 0 mm 2 m/s 554 mmHg 26%
    Mostrar mais